STARLINK-36694, 67653

Orbit data source: Space-Track

STARLINK-36694, 67653 is a payload satellite owned by SpaceX/Seattle (US) in SSO that was launched on Mon, 02 Feb 2026 UTC via an FALCON 9 launch vehicle from the Air Force Western Test Range (AFWTR). Payload-class satellites include a variety of spacecraft equipped with specific instruments for various scientific and technological missions. These include communications satellites like Starlink; space stations such as the ISS; scientific satellites like the Hubble; Earth observation satellites from companies like Planet Labs, Umbra, and HawkEye 360; GPS; miniature CubeSats for education and research; and military/defense satellites.

Loading next visibility...
Identifier
67653, 2026-022F
Orbit
SSO
Country
Flag of USUS
Related business
Manufacturer
SpaceX/Seattle
Mission
Operational spacecraft
Bus & Motor
STARLINK V2MO, Unknown motor
Mass
575 kg wet, ~530 kg dry
Launch date (UTC)
2026-02-02 (2 months ago)
Launch vehicle
FALCON 9
Launch site
Air Force Western Test Range (AFWTR)
Object type
Payload
Rocket body
Debris
Shape & HBR
Unknown shape, 17.7 m
Radar Cross Section
RCS unknown

Expand to show TLE details & history
Last TLE update: 13 hours ago

TLE from 13 hours ago
0 STARLINK-36694
1 67653U 26022F   26095.07721212  .00000238  00000-0  96846-5 0  9994
2 67653  97.2859 128.9963 0000551  62.8955 297.2344 15.33436933  9610
Epoch: 2026-04-05T01:51Z
TLE epoch observation values (Epoch: 2026-04-05T01:51:11.127Z)
Latitude
0.00001°
Longitude
-92.18788°
Altitude
468.507 km
Speed
7.632 km/s
True Right ascension
08h 35m 59s
True Declination
0° 00' 00"
Sunlit
Object was in full shadow at epoch
Visualization orbit readout
Latitude
Unknown
Longitude
Unknown
Altitude
Unknown
Speed
Unknown
Apparent Right ascension
Unknown
Apparent Declination
Unknown
Sunlit
N/A
Visualization observer readout
Local Sidereal Time
20:55:56
Azimuth
Unknown
Elevation
Unknown
Doppler factor
Unknown
Orbital elements
Apogee altitude
462.887 km
Perigee altitude
462.133 km
Semi-major axis
6,840.647 km
Eccentricity
0.00006
Inclination
97.2859°
RAAN
128.9963°
Arg. of periapsis
62.8955°
True anomaly
297.22879°
Mean anomaly
297.2344°
Eccentric anomaly
297.23159°
Mean motion
3.83617 °/min
Orbital period
93.84 mins
BSTAR
0.0000096846
Loading maneuver chart data...
Computing Atmospheric mass density...
Loading historical data...
Loading historical data...
Loading historical data...
Loading historical data...
Loading historical data...
Loading historical data...
Loading historical data...

Documentation

Showing up to 5 results
|